Simultaneous Nadir Overpasses (SNOs) Predictions

Prediction of SNOs between AQUA and METOP-C Satellite Orbit:

Table of predicted SNOs for the next 14.0 days since TLE Epoch: 2/6/2021
Index Date (AQUA) Time (AQUA) Lat,Lon (AQUA) SZA (AQUA ) Date (METOP-C) Time (METOP-C) Lat,Lon (METOP-C) SZA (METOP-C ) Distance(km) Time Diff (sec)
1 02/06/2021 11:17:21 -73.67,-174.82 90.76 02/06/2021 11:16:46 -73.68,-174.86 90.75 1.39 35
2 02/06/2021 12:06:50 73.77, -7.40 89.34 02/06/2021 12:07:23 73.77, -7.30 89.33 3.22 33
3 02/09/2021 06:51:37 -73.67,-108.39 91.65 02/09/2021 06:51:09 -73.67,-108.48 91.65 2.89 28
4 02/09/2021 07:41:06 73.78, 59.02 88.46 02/09/2021 07:41:46 73.76, 59.07 88.43 2.77 40
5 02/12/2021 02:25:52 -73.68, -41.97 92.56 02/12/2021 02:25:30 -73.71, -41.98 92.54 2.34 22
6 02/12/2021 03:15:20 73.74, 125.55 87.49 02/12/2021 03:16:08 73.74, 125.44 87.49 3.31 48
7 02/14/2021 21:10:30 73.08,-141.92 85.85 02/14/2021 21:09:23 73.04,-144.39 85.94 80.09 67
8 02/14/2021 22:00:08 -73.70, 24.43 93.50 02/14/2021 21:59:53 -73.69, 24.39 93.50 1.56 15
9 02/14/2021 22:49:36 73.76,-168.06 86.56 02/14/2021 22:50:30 73.77,-168.07 86.57 2.08 54
10 02/17/2021 16:44:51 73.37, -76.07 85.18 02/17/2021 16:43:41 73.28, -77.46 85.17 45.76 70
11 02/17/2021 17:34:24 -73.72, 90.82 94.45 02/17/2021 17:34:15 -73.73, 90.88 94.45 1.96 9
12 02/17/2021 18:23:52 73.78,-101.67 85.60 02/17/2021 18:24:53 73.76,-101.71 85.57 2.85 61



Historial Predications of SNOs between AQUA and METOP-C
